[[{"header":{"parameterUnit":"m.s-1","parameterCategory":1,"la1":30.2991,"la2":30.254,"lo1":-89.0895,"lo2":-89.0444,"dy":0.0017,"dx":0.0017,"nx":28,"ny":28,"refTime":"2025-05-29T09:00:00:Z","depth":0,"parameterNumber":2,"parameterNumberName":"U-component_of_WINDS"},"data":[0,0,0,0,0,0,0,0,0,0,0,0,0,0,0,0,0,0,0,0,0,0,0,0,0,0,0,0,0,0,0,0,0,0,0,0,0,0,0,0,0,0,0,0,0,0,0,0,0,0,0,0,0,0,0,0,0,0,0.9729,0.9729,0,0.9761,0.9761,0.9762,0.9754,0.9753,0.9752,0.9752,0.9782,0.9783,0.9785,0,0,0,0,0,0,0,0,0,0,0,0,0,0.9657,0.9659,0.9729,0.9729,0.973,0.9761,0.9761,0.9762,0.9754,0.9753,0.9752,0.9752,0.9782,0.9783,0.9785,0,0,0,0,0,0,0,0,0,0,0,0,0,0.9689,0.9659,0.9729,0.973,0.973,0.9761,0.9761,0.9762,0.9754,0.9753,0.9752,0.9751,0.9781,0.9783,0.9785,0.9817,0,0,0.9791,0.9792,0,0,0,0,0,0,0,0,0.9687,0.9691,0.9729,0.973,0.973,0.9752,0.9747,0.978,0.9754,0.9745,0.9752,0.9751,0.9773,0.9775,0.9783,0.9818,0.9819,0.9792,0.9793,0.9794,0.9794,0,0,0,0,0,0,0,0.9685,0.969,0.9742,0.973,0.973,0.9727,0.9731,0.9753,0.9763,0.9745,0.9745,0.9749,0.9773,0.9781,0.9784,0.982,0.9792,0.9793,0.9795,0.9796,0.988,0.9881,0,0,0,0,0,0,0.9683,0.9688,0.9741,0.9743,0.9706,0.9729,0.9733,0.9746,0.9763,0.9765,0.975,0.9749,0.9778,0.9782,0.9785,0.9822,0.9794,0.9796,0.9797,0.9879,0.988,0.9881,0,0,0,0,0,0,0.9681,0.9687,0.9739,0.9715,0.9722,0.9731,0.9746,0.9747,0.9756,0.9767,0.9768,0.9757,0.9778,0.9782,0.9809,0.9823,0.9797,0.9799,0.9878,0.9879,0.9881,0.9896,0,0,0,0,0,0,0.9679,0.9687,0.97,0.9716,0.9723,0.9763,0.9747,0.9749,0.976,0.9758,0.9774,0.9775,0.9777,0.9806,0.9811,0.9825,0.98,0.9876,0.9878,0.988,0.9894,0.9898,0.9901,0,0,0,0,0,0.9677,0.9703,0.9701,0.9707,0.974,0.9764,0.9768,0.9771,0.9761,0.9773,0.978,0.9775,0.9821,0.9808,0.9814,0.9829,0.9875,0.9878,0.988,0.9893,0.9897,0.9901,0,0,0,0,0,0,0.9688,0.9705,0.9703,0.9735,0.9748,0.9763,0.9779,0.9776,0.9791,0.9789,0.9791,0.9795,0.9821,0.9828,0.9814,0.986,0.9846,0.985,0.9854,0.9859,0.9862,0.9859,0.9802,0,0,0,0,0,0.9694,0.9714,0.9727,0.9754,0.9761,0.9769,0.978,0.9781,0.9794,0.9799,0.9808,0.982,0.9837,0.9848,0.9865,0.9896,0.9898,0.9909,0.9912,0.9915,0.9917,0.9932,0.9937,0.9888,0.9888,0.9888,0,0,0.9707,0.9719,0.9731,0.9757,0.9767,0.9786,0.9774,0.9794,0.9808,0.9802,0.9827,0.9834,0.9848,0.9876,0.9889,0.9883,0.9931,0.9918,0.992,0.9921,0.9935,0.994,0.9944,0.989,0.989,0.9889,0,0,0.974,0.9752,0.9775,0.9786,0.9802,0.9807,0.9812,0.9827,0.9831,0.9857,0.9852,0.9868,0.9898,0.9908,0.9916,0.9952,0.9947,0.9958,0.9974,0.9989,0.9993,0.9996,1.0008,1.0012,0.996,0.996,0.996,0,0.9754,0.9784,0.9787,0.9808,0.9819,0.9815,0.9838,0.9848,0.9868,0.9875,0.9868,0.9904,0.9913,0.9943,0.9951,0.9959,0.9964,0.9955,0.9992,0.9996,0.9999,1.001,1.0014,0.9961,0.9961,0.9961,0.9961,0,0.9799,0.9819,0.9836,0.9856,0.9869,0.989,0.9896,0.9908,0.9908,0.9913,0.9938,0.9949,0.9967,0.9974,0.9974,1.0003,0.9999,0.9992,0.9978,1.0004,1.0015,1.0019,0.9963,0.9962,0.9962,0.9962,0,0,0.984,0.9861,0.9867,0.9876,0.9893,0.9908,0.9929,0.9947,0.9957,0.9971,0.9987,1.0012,1.0005,1.0015,1.0016,1.0029,1.0055,1.0021,1.0021,1.0026,1.0086,1.009,1.0095,1.0052,1.0053,1.0054,1.0085,0,0.9873,0.9911,0.9914,0.9948,0.9965,0.9962,0.998,0.9991,0.9996,1.0011,1.0017,1.0034,1.0025,1.0031,1.0044,1.0049,1.0067,1.0047,1.0066,1.0067,1.0062,1.0101,1.0105,1.0134,1.0089,1.0089,1.009,0,0.9918,0.9933,0.9968,0.9982,0.9989,1.0006,1.0022,1.0037,1.0049,1.0052,1.0063,1.0061,1.0081,1.0068,1.0094,1.0081,1.0089,1.0093,1.0094,1.0095,1.0079,1.0101,1.0143,1.0147,1.0096,1.0096,1.0095,0,0.9942,0.9972,0.9996,1.0004,1.002,1.0032,1.0039,1.0051,1.0061,1.0075,1.0081,1.0097,1.0105,1.0117,1.0119,1.011,1.0146,1.0133,1.0147,1.0147,1.0154,1.0153,1.0196,1.0161,1.0161,1.0161,1.0161,0,0.9978,0.9999,1.0007,1.0022,1.0045,1.0048,1.0071,1.0077,1.0088,1.0103,1.0101,1.0115,1.0118,1.0132,1.0134,1.0155,1.0159,1.0161,1.0161,1.016,1.016,1.0165,1.0162,1.0162,1.0162,1.0162,1.0162,0,1.0009,1.0015,1.0041,1.0055,1.0059,1.0075,1.0086,1.01,1.0105,1.0124,1.0128,1.0136,1.0152,1.0156,1.0176,1.0177,1.0201,1.02,1.0197,1.0197,1.021,1.0209,1.0257,1.0263,1.0225,1.0226,1.0226,0,1.0031,1.0047,1.0063,1.0073,1.0081,1.0098,1.0108,1.0112,1.0122,1.0137,1.0149,1.0165,1.0179,1.0205,1.0211,1.0226,1.0224,1.024,1.0226,1.0225,1.0223,1.0221,1.0222,1.0242,1.0243,1.0243,1.0243,0,1.0069,1.0071,1.0087,1.0103,1.0116,1.0129,1.0141,1.015,1.0155,1.0166,1.0184,1.0194,1.0214,1.023,1.0245,1.0251,1.0247,1.0248,1.0252,1.0251,1.0248,1.0248,1.0203,1.0247,1.0246,1.0246,1.0246,1.0246,1.0095,1.0109,1.0122,1.0139,1.0149,1.016,1.0173,1.018,1.0194,1.0211,1.0212,1.0231,1.0242,1.0261,1.0268,1.0282,1.0277,1.0283,1.0284,1.0285,1.0285,1.0247,1.0284,1.0284,1.0284,1.0284,1.0284,0,1.0132,1.014,1.0156,1.0173,1.0186,1.0183,1.0196,1.0207,1.0224,1.0234,1.0248,1.0267,1.0282,1.0289,1.0304,1.0313,1.0312,1.0317,1.0315,1.0317,1.029,1.0284,1.0318,1.0318,1.0317,1.0317,1.0317,1.0317,1.0153,1.0175,1.0179,1.0206,1.0213,1.0232,1.0239,1.0249,1.0258,1.028,1.0292,1.0297,1.0306,1.0322,1.0335,1.0337,1.0342,1.0347,1.0348,1.0322,1.0319,1.0315,1.031,1.0348,1.0348,1.0373,1.0373,1.0374]},{"header":{"parameterUnit":"m.s-1","parameterCategory":1,"la1":30.2991,"la2":30.254,"lo1":-89.0895,"lo2":-89.0444,"dy":0.0017,"dx":0.0017,"nx":28,"ny":28,"refTime":"2025-05-29T09:00:00:Z","depth":0,"parameterNumber":3,"parameterNumberName":"V-component_of_WINDS"},"data":[0,0,0,0,0,0,0,0,0,0,0,0,0,0,0,0,0,0,0,0,0,0,0,0,0,0,0,0,0,0,0,0,0,0,0,0,0,0,0,0,0,0,0,0,0,0,0,0,0,0,0,0,0,0,0,0,0,0,3.0457,3.0457,0,3.0473,3.0473,3.0473,3.0415,3.0413,3.0411,3.041,3.0427,3.0429,3.0431,0,0,0,0,0,0,0,0,0,0,0,0,0,3.0375,3.0377,3.0457,3.0457,3.0457,3.0473,3.0473,3.0473,3.0415,3.0413,3.0411,3.0409,3.0426,3.0429,3.0431,0,0,0,0,0,0,0,0,0,0,0,0,0,3.0403,3.0378,3.0457,3.043,3.0428,3.0473,3.0473,3.0473,3.0416,3.0413,3.041,3.0408,3.0426,3.0429,3.0432,3.0503,0,0,3.0441,3.0443,0,0,0,0,0,0,0,0,3.0401,3.0406,3.0434,3.0432,3.043,3.0439,3.0451,3.0484,3.0416,3.042,3.041,3.0407,3.0433,3.0436,3.0444,3.0504,3.0505,3.0441,3.0443,3.0445,3.0446,0,0,0,0,0,0,0,3.04,3.0405,3.0463,3.0434,3.0432,3.0417,3.0418,3.0457,3.0441,3.042,3.0416,3.0418,3.0432,3.0442,3.0444,3.0505,3.0441,3.0444,3.0446,3.0447,3.0621,3.0624,0,0,0,0,0,0,3.0401,3.0404,3.0463,3.0464,3.0409,3.0421,3.0422,3.0439,3.0441,3.0439,3.042,3.0415,3.0437,3.0441,3.0445,3.0526,3.0445,3.0448,3.0449,3.0619,3.0622,3.0625,0,0,0,0,0,0,3.04,3.0407,3.0462,3.0433,3.0439,3.0425,3.0444,3.0441,3.045,3.0441,3.0438,3.0433,3.0435,3.044,3.0488,3.0526,3.0449,3.0452,3.0616,3.062,3.0624,3.0692,0,0,0,0,0,0,3.0398,3.0407,3.0434,3.0434,3.044,3.0506,3.0447,3.0443,3.0456,3.0449,3.0453,3.0451,3.0434,3.0484,3.0492,3.0529,3.0454,3.0612,3.0617,3.0622,3.0686,3.0698,3.0708,0,0,0,0,0,3.0395,3.0454,3.0436,3.0444,3.0475,3.0509,3.0512,3.0492,3.0459,3.0486,3.048,3.045,3.0521,3.049,3.0497,3.0537,3.061,3.0616,3.0622,3.0682,3.0696,3.0708,0,0,0,0,0,0,3.0461,3.0454,3.0434,3.0494,3.0502,3.0499,3.0532,3.0508,3.0526,3.0519,3.0493,3.0494,3.0546,3.0546,3.0511,3.0605,3.056,3.0568,3.0602,3.0616,3.0626,3.0625,3.0457,0,0,0,0,0,3.0482,3.051,3.0503,3.0557,3.0562,3.0547,3.0561,3.0544,3.0551,3.0554,3.0552,3.056,3.0584,3.06,3.0622,3.0686,3.0685,3.0717,3.0728,3.0737,3.0744,3.0775,3.0789,3.0645,3.0645,3.0645,0,0,3.0527,3.0527,3.0546,3.057,3.0574,3.0603,3.055,3.0584,3.0604,3.056,3.0604,3.0602,3.061,3.0666,3.069,3.0668,3.0783,3.0745,3.0752,3.0754,3.0783,3.0797,3.0809,3.065,3.0649,3.0648,0,0,3.0623,3.0627,3.0671,3.0675,3.0682,3.0671,3.0681,3.0681,3.0677,3.0722,3.0688,3.0712,3.0755,3.076,3.0769,3.0864,3.0837,3.0872,3.0928,3.096,3.0971,3.0981,3.1012,3.1024,3.0879,3.088,3.088,0,3.0678,3.0721,3.0697,3.0732,3.0742,3.0702,3.0745,3.0751,3.0765,3.0773,3.0747,3.0797,3.08,3.0855,3.0878,3.0887,3.0897,3.0871,3.0971,3.0981,3.099,3.102,3.1032,3.0884,3.0883,3.0883,3.0882,0,3.0787,3.0816,3.0851,3.0863,3.0878,3.0917,3.0899,3.0916,3.0898,3.0889,3.0933,3.0934,3.0954,3.0966,3.095,3.1019,3.1004,3.0976,3.0929,3.1008,3.1035,3.1047,3.0889,3.0888,3.0887,3.0886,0,0,3.0926,3.0922,3.0935,3.0939,3.0942,3.0964,3.1001,3.1019,3.1034,3.1044,3.1073,3.1109,3.1081,3.1091,3.1074,3.1102,3.1174,3.1069,3.1069,3.1087,3.1248,3.1268,3.1282,3.1156,3.1159,3.116,3.1246,0,3.1018,3.108,3.1058,3.1121,3.1146,3.1107,3.1139,3.1144,3.1136,3.1157,3.1149,3.1173,3.1137,3.1142,3.1167,3.116,3.1206,3.1154,3.1182,3.1183,3.1179,3.1297,3.1319,3.14,3.1257,3.1259,3.1261,0,3.1134,3.1147,3.1212,3.1207,3.1217,3.1246,3.126,3.128,3.1285,3.1277,3.1287,3.1263,3.1298,3.1253,3.1299,3.1264,3.1275,3.1273,3.1275,3.1276,3.1226,3.1299,3.1426,3.1437,3.1278,3.1276,3.1275,0,3.1226,3.126,3.1302,3.1307,3.1304,3.1324,3.1324,3.1325,3.1337,3.1349,3.1356,3.1373,3.1381,3.1394,3.1376,3.1345,3.1424,3.1378,3.1418,3.1418,3.1435,3.1434,3.1564,3.1445,3.1445,3.1445,3.1445,0,3.133,3.1371,3.1342,3.1369,3.1412,3.1387,3.1431,3.1426,3.1427,3.1451,3.1419,3.1442,3.1417,3.1437,3.1423,3.1462,3.1467,3.1461,3.1457,3.1463,3.1463,3.1468,3.1462,3.1448,3.1447,3.1447,3.1446,0,3.144,3.1423,3.1466,3.1458,3.1457,3.149,3.1483,3.1506,3.1496,3.1526,3.1532,3.1516,3.1538,3.1521,3.1543,3.1533,3.1584,3.1573,3.1583,3.1579,3.1619,3.1614,3.1755,3.1771,3.1644,3.1645,3.1646,0,3.1507,3.1537,3.1531,3.1544,3.1545,3.1568,3.1578,3.1554,3.1566,3.1572,3.1594,3.1613,3.1627,3.1664,3.1655,3.1671,3.1658,3.1706,3.1661,3.1665,3.1656,3.1654,3.1656,3.1715,3.1717,3.1718,3.1719,0,3.1627,3.1616,3.1632,3.1645,3.1658,3.1668,3.1675,3.1687,3.1662,3.1678,3.1699,3.171,3.1731,3.175,3.1763,3.1762,3.1736,3.1733,3.1743,3.1749,3.1752,3.1749,3.1606,3.173,3.1729,3.1728,3.1728,3.1727,3.1715,3.1739,3.1738,3.1756,3.1758,3.1765,3.1785,3.1777,3.1794,3.1808,3.1793,3.1819,3.182,3.1834,3.1836,3.1855,3.1836,3.185,3.1853,3.1857,3.1862,3.1751,3.1858,3.1858,3.1857,3.1857,3.1857,0,3.1831,3.1828,3.1845,3.1855,3.1869,3.1842,3.1848,3.1861,3.1884,3.1887,3.19,3.1924,3.1941,3.1932,3.1947,3.1964,3.1953,3.1969,3.1967,3.1966,3.188,3.1869,3.1978,3.1978,3.1978,3.1978,3.1978,3.1978,3.1893,3.1931,3.1919,3.1957,3.1954,3.1977,3.1982,3.1987,3.1989,3.2016,3.203,3.2024,3.2022,3.2036,3.205,3.2047,3.2053,3.2074,3.2066,3.1985,3.1973,3.1961,3.1951,3.2076,3.2076,3.2151,3.2151,3.2152]}]]